Location: Ciserano
(45.5833°N, 9.6000°E)
Time: 23:00:26
(UTC+00:00)

FALCON 9 DEB - Pass Details

Date: 14 June 2021
Orbit: 364 x 377 km, 53.0° (Epoch: 26 July)

Event Time Altitude Azimuth Distance (km) Brightness Sun altitude
Exits shadow 23:44:15 44° 307° (NW) 550 3.8 -20.9°
Maximum altitude 23:44:40 47° 335° (NNW) 521 3.8 -20.9°
Drops below altitude 10° 23:47:44 10° 51° (NE) 1,415 6.3 -20.9°
Sets 23:49:45 0° 57° (ENE) 2,230 7.3 -20.8°
